Location: Bratsk-Energetik
(56.3300°N, 101.7600°E)
Time: 22:18:56
(UTC+08:00)

ISS - Pass Details

Date: 26 May 2017
Orbit: 402 x 409 km, 51.6° (Epoch: 25 May)

Event Time Altitude Azimuth Distance (km) Brightness Sun altitude
Rises 01:37:36 0° 264° (W) 2,332 -0.1 -12.4°
Reaches altitude 10° 01:39:48 10° 255° (WSW) 1,469 -1.2 -12.3°
Maximum altitude 01:42:48 33° 189° (S) 704 -3.2 -12.3°
Drops below altitude 10° 01:45:48 10° 123° (ESE) 1,464 -1.2 -12.2°
Sets 01:47:59 0° 114° (ESE) 2,321 -0.1 -12.2°
